Regional Weather Roundup
Issued by NWS Upton, NY

Current Version | Previous Version | Text Only | Print | Product List | Glossary Off
Versions: 1 2 3 4 5 6 7 8 9 10 11 12 13 14 15 16 17 18 19 20 21 22 23 24 25 26 27 28 29 30

000
ASUS41 KOKX 230108
RWROKX

REGIONAL WEATHER ROUNDUP
NATIONAL WEATHER SERVICE NEW YORK NY
900 PM EDT SUN OCT 22 2017

NOTE: "FAIR" INDICATES FEW OR NO CLOUDS BELOW 12,000 FEET WITH NO
SIGNIFICANT WEATHER AND/OR OBSTRUCTIONS TO VISIBILITY.

NYZ071-072-176-178-NJZ106-104-230200-
NEW YORK CITY METRO AREA

CITY           SKY/WX    TMP DP  RH WIND       PRES   REMARKS
Central Park   PTCLDY    64  51  62 VRB5      30.40R
Bronx Bot Gard   N/A     59  52  77 E1        30.39R
LaGuardia APRT MOCLDY    65  53  65 S7        30.37R
Kennedy INTL   MOCLDY    60  58  92 SE3       30.39R
Breezy Point     N/A     63 N/A N/A SE7         N/A
Newark/Liberty MOCLDY    65  51  60 SE6       30.37R
Teterboro      PTCLDY    64  49  57 SW3       30.36R
$$

NYZ177-179-078>081-230200-
LONG ISLAND NEW YORK

CITY           SKY/WX    TMP DP  RH WIND       PRES   REMARKS
Jones Beach      N/A     63 N/A N/A S3          N/A
Matinecock PT    N/A     61 N/A N/A SE2         N/A
Farmingdale    PTCLDY    59  56  89 CALM      30.38S
MacArthur/ISP  MOCLDY    57  56  96 CALM      30.38R
Shirley        PTCLDY    57  53  86 CALM      30.39R
Mt Sinai Harb    N/A    N/A N/A N/A S5          N/A
Westhampton    CLEAR     49  45  86 CALM      30.41R
East Hampton   FAIR      49  48  97 CALM      30.39S
Montauk          N/A     60  60 100 CALM      30.41R
$$

NYZ052-065-067-230200-
HUDSON VALLEY

CITY           SKY/WX    TMP DP  RH WIND       PRES   REMARKS
White Plains   CLOUDY    55  49  80 CALM      30.37S
Larchmont Harb   N/A     63 N/A N/A MISG        N/A
Croton On Huds   N/A     63 N/A N/A E2          N/A
Newburgh       PTCLDY    64  45  48 VRB6      30.37R
Montgomery     CLOUDY    54  48  80 CALM      30.35R
Poughkeepsie   PTCLDY    54  46  74 CALM      30.35R
Albany         PTCLDY    64  43  46 S6        30.33R
$$

NJZ001-105-106-008-010-013-015-019>022-104-230200-
NEW JERSEY

CITY           SKY/WX    TMP DP  RH WIND       PRES   REMARKS
Newark/Liberty MOCLDY    65  51  60 SE6       30.37R
Teterboro      PTCLDY    64  49  57 SW3       30.36R
Caldwell       PTCLDY    59  53  80 CALM      30.37R
Somerville     PTCLDY    55  51  86 CALM      30.34S
Linden         FAIR      63  52  67 CALM      30.37S
Perth Amboy      N/A     61 N/A N/A SE6         N/A
Sussex         PTCLDY    54  49  83 CALM      30.36R
Andover          N/A     53  50  89 CALM      30.36S
Trenton        PTCLDY    61  47  59 SE3       30.35S
Millville      CLOUDY    57  56  96 E3        30.35R
Atlantic City  PTCLDY    58  55  90 CALM      30.37R
Wrightstown    CLEAR     55  52  88 CALM      30.34S
Toms River       N/A     51  48  89 CALM      30.37S
Belmar         CLOUDY    59  56  89 E3        30.38S
$$

PAZ047>061-062-071-230200-
EASTERN PENNSYLVANIA

CITY           SKY/WX    TMP DP  RH WIND       PRES   REMARKS
Philadelphia   MOCLDY    62  50  64 SE5       30.36R
Allentown      PTCLDY    64  47  53 CALM      30.34S
Scranton       CLOUDY    63  44  50 CALM      30.33R
$$

CTZ002-004>006-009-010-012-RIZ004-006-007-MAZ004-011-015-230200-
SOUTHERN NEW ENGLAND
 IN CT

CITY           SKY/WX    TMP DP  RH WIND       PRES   REMARKS
Bradley INTL   CLOUDY    62  48  60 S8        30.37R
Hartford       CLOUDY    58  51  78 S3        30.38R
Danbury        CLEAR     52  48  86 SW3       30.39R
Wtrbury/Oxford CLEAR     56  52  86 S5        30.40R
Norwalk Harbor   N/A     63 N/A N/A S7          N/A
Bridgeport     PTCLDY    63  56  78 SW5       30.38S
Meriden        PTCLDY    52  48  86 CALM      30.39R
New Haven      PTCLDY    56  51  84 CALM      30.39R
Chester        FAIR      59  55  88 CALM      30.40R
Groton         PTCLDY    60  56  86 SW6       30.39R
Wilimantic     PTCLDY    54  49  83 NE3       30.39R

 IN RI

CITY           SKY/WX    TMP DP  RH WIND       PRES   REMARKS
Providence     MOCLDY    59  56  89 N3        30.40R
Block Island   PTCLDY    61  59  93 SW9       30.40R
Westerly       PTCLDY    57  54  89 CALM      30.40R
 IN MA

CITY           SKY/WX    TMP DP  RH WIND       PRES   REMARKS
Boston         CLOUDY    56  54  93 NE5       30.42R
Worcester      CLOUDY    56  51  84 NE5       30.41R
Westfield      CLOUDY    52  50  93 CALM      30.37R
Provincetown   PTCLDY    57  56  96 S6        30.41S
Nantucket      CLOUDY    55  55 100 S7        30.42R
$$

ANZ330-335-338-340-345-350-353-355-230200-
COASTAL MARINE OBSERVATIONS


STATION/POSITION TIME  SKY/WX   TEMP    WIND        PRES    VSBY  WAVE
                                AIR SEA DIR/SP/G                  HT/PER
                 (UTC)          (F)     (DEG/KT/KT) (MB)    (MI)  (FT/S)
NY HARB ENTRANCE 2350            65 65  140/  8/ 10 1027.7          2/ 9
20 S FIRE ISLAND 2350            64 65  140/  6/  8 1028.6          2/ 8
GREAT SOUTH BAY  0030            63 63  120/  2/  4   N/A
15 E BARNEGAT LI NOT AVBL
HUDSON CANYON    2350            64 65  120/  8/ 10 1028.2          2/ 9
KINGS POINT      0030            62 66  180/  4/  5 1029.1
EXECUTION ROCKS  0030            64     140/  4/  4   N/A
WESTERN LI SOUND 2345            65     150/  6/  8   N/A           0
CENTRAL LI SOUND NOT AVBL
EASTERN LI SOUND NOT AVBL
ROBBINS REEF     0030            65     170/  9/ 10 1028.9
$$


>>>>>>>>>>>>>>>>>>>>>>>>>>>> KEY <<<<<<<<<<<<<<<<<<<<<<<<<<<
>                                                          <
>     SKY/WX - Sky Condition/Present Weather               <
>     TMP    - Temperature in Fahrenheit                   <
>     DP     - Dew Point in Fahrenheit                     <
>     RH     - Relative Humidity in Percent                <
>     WIND   - Direction (from) and Speed in MPH           <
>     PRES   - Mean Sea Level Pressure (inches of Hg)      <
>     WCI    - Wind Chill Index                            <
>     VSB    - VISIBILITY IN MILES                         <
>     HX     - HEAT INDEX                                  <
>     TC     - TEMPERATURE IN CELSIUS                      <
>     VRB    - VARIABLE WIND DIRECTION                     <
>                                                          <
>>>>>>>>>>>>>>>>>>>>>>>>>>>> KEY <<<<<<<<<<<<<<<<<<<<<<<<<<<




USA.gov is the U.S. government's official web portal to all federal, state and local government web resources and services.